User: anonymous   Login
Location: Natural Bridges National Monument
(37.6093°N, 109.9767°W)
Time: 10:02:16
(UTC-07:00)
Language:

USA 32 - Orbit

View from above orbital plane
View from above orbital plane
View from above satellite
View from above satellite

Ground track
Ground track

The orbit data is extracted from the following two-line orbital elements,

1 19460U 88078A   16346.72895441 0.00000070  00000-0  25409-4 0    05
2 19460  84.9883 330.8327 0007000  50.4913 309.5085 14.33399013    03
Epoch (UTC): 11 December 2016 17:29:41
Eccentricity: 0.0007000
inclination: 84.9883°
perigee height: 775 km
apogee height: 785 km
right ascension of ascending node: 330.8327°
argument of perigee: 50.4913°
revolutions per day: 14.33399013
mean anomaly at epoch: 309.5085°
orbit number at epoch: 0

The dashed part of the orbit path shows where the satellite is in the earth's shadow,  

DLR